Weather in Sakkulovo

Russia / Chelyabinsk Oblast     55°29′02″N   61°23′33″E
temp.,
°C
wind,
m/s
gust,
m/s
humid.,
%
clouds,
%
prec.,
mm/h
press.,
hPa
HPBL,
m
11 may, tue
tue1123:00+12e33445 0.0 102534
02:00+10se23480 0.0 102620
05:00+8se22490 0.0 102710
08:00+13s22395 0.0 1028234
11:00+18sse22284 0.0 10281294
14:00+20sse222493 0.0 10271564
17:00+21sw222196 0.0 10271711
20:00+18nnw1132100 0.0 102711
12 may, wed
wed1223:00+14sw22354 0.0 102811
02:00+12wsw33435 0.0 102828
05:00+11w33476 0.0 102940
08:00+16nnw344415 0.0 1029239
11:00+21n344842 0.0 1029971
14:00+24nnw35406 0.0 10272194
17:00+25nnw243494 0.0 10262379
20:00+20ne374441 0.0 1027160
13 may, thu
thu1323:00+16ene124398 0.0 102711
02:00+15w1146100 0.0 102711
05:00+13wnw335421 0.0 102824
08:00+18nnw35507 0.0 1028270
11:00+23nnw453952 0.0 10271321
14:00+25nnw453024 0.0 10261796
17:00+26n46275 0.0 10262154
20:00+23n22396 0.0 102511
14 may, fri
fri1423:00+18ese22485 0.0 102611
02:00+17sw22525 0.0 102711
05:00+15wsw11575 0.0 102711
08:00+20sw23470 0.0 1027216
11:00+26wsw34340 0.0 10271123
14:00+28w34270 0.0 10252555
17:00+29wnw35225 0.0 10243019
20:00+24nnw33389 0.0 102329
15 may, sat
sat1523:00+20wnw33461 0.0 102437
02:00+18nw35517 0.0 102467
05:00+16wnw355355 0.0 102567
08:00+21wnw354534 0.0 1025258
11:00+26w453214 0.0 10231475
14:00+29w45255 0.0 10222435
17:00+29wnw46245 0.0 10213214
20:00+24nw48414 0.0 1020133